Probability
19 3 3 10 19 0 3 0 0 0 0 0 6 6 6 6 0 0 3 13 48 87 94 100 100 100 100 100 100 100 100 100 100 100 100 100 100 100 97 100 100 97 97 94 94 90 90 90 90
0 0 0 13 3 3 0 0 0 6 6 10 10 13 16 23 29 26 23 45 55 84 90 94 100 100 100 100 100 100 100 100 100 100 100 100 100 100 97 97 97 97 97 97 94 90 84 87 87
0 3 3 6 6 3 3 0 0 13 19 16 19 13 19 29 42 23 32 55 61 77 84 97 100 100 100 100 100 100 100 100 100 100 100 100 100 97 100 100 100 97 97 97 97 97 94 90 87
0 3 0 3 3 3 0 0 3 10 16 13 13 19 23 42 52 35 45 55 68 77 94 100 100 100 100 100 100 100 100 100 100 97 100 100 100 100 100 100 97 97 97 97 100 87 87 87 77
0 3 0 0 0 0 0 0 3 10 16 19 19 23 29 52 45 42 55 58 68 87 97 100 100 100 100 100 100 100 100 100 97 97 97 100 100 100 100 100 97 97 97 97 90 84 81 81 74
0 3 0 0 0 0 0 0 3 16 19 23 23 29 32 35 42 48 61 68 77 90 97 100 100 100 100 100 100 100 100 97 97 97 97 100 100 100 100 100 97 97 97 97 94 87 81 74 71
0 0 0 0 0 0 0 3 10 23 26 35 32 23 23 39 48 68 74 74 81 94 97 100 100 100 100 100 100 100 100 97 97 97 97 100 100 100 100 100 100 97 97 94 87 74 61 65 68
0 0 0 0 0 0 3 3 10 29 35 39 29 16 26 48 61 74 74 74 87 94 97 97 100 100 100 100 100 100 100 97 97 97 97 97 100 100 100 100 97 94 94 87 77 71 65 61 48
0 0 0 0 0 0 3 3 10 26 39 42 32 23 32 42 77 81 74 71 87 90 94 97 97 100 100 100 100 100 100 97 97 97 97 94 90 90 97 97 97 94 94 90 77 77 74 65 52
0 0 0 0 0 0 0 3 3 23 39 42 39 32 35 58 71 84 84 81 87 87 94 94 90 94 97 100 100 94 94 90 84 84 81 58 52 58 77 97 97 94 94 94 90 87 77 48 10
0 0 0 0 0 0 0 0 3 19 26 32 35 32 32 48 58 77 81 74 71 81 87 84 84 81 87 81 87 84 81 81 77 77 65 52 45 42 58 65 84 84 68 48 52 61 35 16 10
0 0 0 0 0 0 0 6 3 10 23 26 35 35 35 39 45 68 77 77 68 71 81 84 77 71 68 81 77 77 71 71 74 77 68 45 45 32 23 26 39 32 23 16 13 13 13 6 3
0 0 0 0 0 0 0 6 6 13 23 29 32 35 35 26 32 45 61 68 61 61 68 61 68 65 58 65 74 81 74 68 61 61 61 48 23 19 23 19 23 23 13 10 10 6 6 3 0
0 0 0 0 0 0 3 10 13 19 29 32 29 29 32 42 45 48 58 65 68 65 61 71 58 55 45 55 48 81 74 58 55 65 65 52 26 23 16 19 19 19 13 16 10 10 6 3 3
0 0 0 0 0 0 6 13 16 23 29 29 29 32 32 42 48 55 61 58 68 68 71 74 65 68 65 65 61 71 68 71 68 68 58 42 29 26 23 26 13 10 6 10 10 6 3 10 3
0 0 0 0 0 0 3 13 10 16 26 29 32 42 52 52 58 48 58 61 65 71 74 71 84 77 71 68 65 77 71 68 68 61 55 45 35 23 23 23 13 10 13 13 13 13 13 13 3
0 0 0 0 0 0 0 10 13 19 29 42 42 45 42 42 55 55 61 71 68 68 71 77 74 74 68 65 68 71 61 52 55 52 55 55 52 39 26 23 19 16 19 16 19 13 13 13 3
0 0 0 0 0 0 3 0 10 26 29 29 52 61 52 55 48 71 71 74 71 68 71 71 74 71 71 68 65 58 52 45 52 52 52 48 45 48 32 29 23 16 16 13 10 6 10 3 6
0 0 0 0 0 0 3 0 6 16 32 35 42 52 58 58 61 61 71 77 74 65 68 71 74 71 71 71 68 52 55 48 48 48 52 52 48 45 29 39 26 16 16 13 10 3 3 3 0
0 0 0 0 0 0 0 3 3 23 26 35 39 39 58 65 61 74 77 81 77 68 68 68 74 71 71 65 58 52 45 42 42 35 52 45 48 48 39 29 23 13 6 6 3 3 3 0 3
0 0 0 0 0 0 0 3 10 13 29 35 39 39 61 65 68 71 74 71 74 71 68 68 68 68 65 55 52 52 48 35 32 29 35 45 48 48 32 19 19 10 10 10 6 6 0 3 3
0 0 0 0 0 0 0 0 6 10 16 32 39 42 52 61 68 77 71 71 68 65 65 58 58 61 61 58 52 52 48 45 32 26 29 35 39 45 26 13 16 13 13 13 6 6 3 3 0
0 0 0 0 0 0 0 0 0 0 16 23 32 45 58 68 71 77 71 68 65 65 58 58 58 58 55 55 48 48 48 39 29 23 23 32 35 35 32 19 16 13 13 13 6 6 3 3 3
0 0 0 0 0 0 0 0 0 0 16 23 35 45 58 58 74 74 71 58 68 65 58 55 61 58 58 55 48 45 45 35 29 23 23 23 29 29 23 26 19 13 13 13 6 6 6 3 3
0 0 0 0 0 0 0 0 0 3 6 23 35 39 39 48 65 61 65 55 58 65 58 58 55 55 52 55 48 45 42 42 29 26 16 16 23 23 19 29 23 19 16 16 10 6 6 6 3
0 0 0 0 0 0 0 3 6 3 6 23 32 29 35 42 52 61 65 58 55 58 52 55 55 48 48 52 48 42 42 42 35 26 16 16 19 19 19 10 13 16 16 13 10 10 13 6 6
0 0 0 0 0 0 3 3 10 3 13 26 19 26 32 45 52 61 58 52 58 52 52 55 52 48 45 42 45 42 39 39 35 29 26 16 13 16 6 6 10 10 10 10 10 10 10 6 6
0 0 0 0 0 0 0 0 3 10 13 23 16 23 32 42 42 52 52 55 55 52 48 48 52 45 45 45 42 45 42 39 35 23 23 16 19 16 10 10 10 10 6 6 6 6 10 6 6
0 0 0 0 0 0 0 0 0 6 10 19 16 23 23 29 35 45 52 52 45 48 42 45 48 48 45 42 42 35 39 32 26 26 26 19 16 13 6 6 6 3 3 6 6 6 10 6 6
0 0 0 0 0 0 0 0 3 6 13 19 23 26 26 23 39 39 35 45 45 45 42 39 42 42 45 39 35 29 29 26 23 23 19 19 19 16 10 3 3 6 6 6 6 10 10 6 6
Height
5902 5901 5902 5903 5902 5901 5899 5899 5899 5899 5900 5899 5899 5899 5899 5899 5899 5901 5899 5897 5897 5897 5897 5897 5898 5898 5899 5899 5900 5900 5901 5901 5901 5901 5901 5901 5900 5900 5900 5899 5899 5898 5898 5897 5897 5897 5897 5896 5896
5903 5903 5904 5904 5902 5901 5901 5901 5901 5901 5901 5901 5900 5900 5900 5899 5899 5899 5898 5898 5898 5898 5898 5899 5899 5899 5900 5900 5901 5901 5902 5902 5902 5902 5902 5902 5901 5901 5901 5900 5900 5899 5899 5898 5898 5898 5898 5897 5897
5905 5904 5906 5905 5903 5902 5902 5901 5901 5901 5902 5902 5902 5901 5901 5900 5899 5899 5899 5899 5899 5899 5899 5899 5900 5900 5900 5901 5901 5902 5902 5903 5903 5903 5903 5903 5903 5902 5902 5901 5901 5900 5900 5899 5899 5899 5899 5898 5898
5906 5906 5906 5905 5903 5903 5902 5902 5902 5902 5903 5903 5903 5903 5902 5901 5899 5900 5899 5899 5899 5899 5900 5900 5900 5900 5901 5901 5902 5903 5903 5904 5904 5904 5904 5904 5904 5903 5903 5902 5902 5901 5901 5900 5900 5900 5900 5899 5899
5906 5906 5906 5904 5903 5903 5902 5903 5904 5904 5904 5904 5904 5903 5902 5901 5899 5899 5899 5899 5899 5900 5900 5900 5901 5901 5901 5902 5903 5903 5904 5904 5905 5905 5905 5905 5904 5904 5904 5903 5903 5902 5902 5901 5901 5901 5901 5900 5900
5907 5907 5906 5905 5904 5903 5903 5903 5904 5905 5904 5904 5904 5904 5903 5902 5900 5899 5899 5899 5900 5900 5900 5901 5901 5901 5902 5902 5903 5904 5904 5905 5905 5906 5906 5905 5905 5905 5904 5904 5903 5903 5902 5902 5902 5901 5901 5901 5900
5908 5908 5906 5906 5904 5904 5905 5905 5905 5905 5904 5904 5904 5904 5903 5903 5901 5900 5899 5900 5900 5900 5900 5901 5901 5901 5902 5902 5903 5904 5905 5905 5906 5906 5906 5906 5906 5905 5905 5905 5904 5904 5903 5903 5902 5902 5902 5901 5901
5908 5908 5906 5906 5905 5905 5905 5905 5905 5905 5905 5904 5904 5904 5904 5903 5902 5900 5900 5900 5900 5900 5901 5901 5901 5902 5902 5903 5903 5904 5905 5905 5906 5906 5906 5906 5906 5906 5905 5905 5905 5904 5904 5903 5903 5903 5902 5902 5901
5908 5909 5907 5906 5906 5906 5905 5906 5905 5905 5904 5904 5904 5904 5904 5903 5902 5901 5901 5901 5901 5901 5901 5901 5901 5901 5902 5902 5903 5904 5905 5905 5906 5906 5907 5907 5906 5906 5906 5906 5905 5905 5904 5904 5903 5903 5903 5902 5902
5907 5907 5906 5906 5906 5905 5905 5906 5905 5904 5904 5904 5904 5903 5903 5903 5903 5902 5901 5901 5901 5901 5900 5900 5901 5901 5901 5902 5903 5903 5904 5905 5906 5906 5907 5907 5906 5906 5906 5906 5906 5905 5905 5904 5904 5903 5903 5903 5902
5906 5906 5906 5905 5905 5904 5904 5905 5905 5905 5904 5904 5903 5903 5902 5902 5902 5902 5902 5901 5901 5900 5900 5900 5900 5900 5900 5901 5902 5903 5904 5904 5905 5906 5906 5906 5906 5906 5906 5906 5906 5906 5905 5905 5904 5904 5904 5903 5903
5904 5905 5904 5904 5905 5904 5904 5904 5905 5904 5904 5904 5904 5903 5902 5901 5902 5902 5901 5901 5900 5899 5899 5899 5899 5899 5899 5900 5901 5902 5903 5904 5904 5905 5906 5906 5906 5906 5906 5906 5906 5906 5905 5905 5905 5904 5904 5904 5903
5903 5903 5903 5903 5904 5904 5904 5904 5904 5904 5904 5903 5903 5902 5902 5901 5901 5901 5901 5900 5901 5900 5899 5898 5898 5898 5898 5899 5900 5900 5902 5903 5904 5904 5905 5906 5906 5905 5906 5906 5906 5906 5906 5905 5905 5904 5904 5904 5904
5901 5901 5902 5902 5902 5902 5902 5903 5903 5903 5903 5903 5902 5901 5901 5900 5899 5900 5899 5899 5900 5899 5899 5899 5898 5897 5898 5898 5899 5899 5901 5902 5903 5904 5904 5904 5904 5905 5905 5905 5906 5906 5905 5905 5905 5904 5904 5904 5904
5899 5900 5901 5900 5901 5901 5901 5902 5902 5902 5902 5902 5902 5901 5900 5899 5898 5898 5898 5898 5898 5898 5898 5897 5897 5896 5897 5897 5898 5898 5899 5900 5901 5902 5903 5903 5904 5904 5904 5905 5905 5905 5905 5905 5904 5904 5904 5904 5904
5897 5898 5899 5899 5899 5899 5900 5900 5900 5900 5899 5900 5900 5899 5899 5898 5897 5897 5896 5896 5895 5895 5895 5895 5895 5895 5895 5896 5896 5897 5898 5899 5900 5900 5901 5902 5902 5903 5903 5904 5904 5904 5904 5904 5904 5904 5904 5903 5903
5894 5895 5896 5896 5896 5896 5897 5897 5898 5898 5897 5898 5898 5898 5897 5897 5896 5895 5895 5894 5893 5893 5893 5893 5892 5893 5893 5893 5894 5895 5896 5897 5898 5898 5899 5900 5900 5901 5901 5902 5902 5902 5903 5903 5903 5903 5903 5903 5903
5891 5892 5893 5893 5894 5894 5894 5895 5895 5895 5896 5896 5896 5896 5896 5894 5894 5893 5893 5892 5891 5890 5890 5890 5890 5891 5891 5891 5892 5893 5894 5895 5895 5896 5897 5898 5898 5898 5899 5900 5900 5901 5901 5902 5902 5902 5902 5902 5902
5887 5889 5890 5891 5891 5892 5892 5893 5893 5893 5894 5894 5894 5894 5893 5892 5891 5890 5890 5889 5889 5888 5889 5888 5887 5888 5889 5889 5889 5890 5892 5893 5893 5894 5894 5895 5895 5896 5897 5898 5898 5899 5900 5900 5901 5901 5901 5901 5901
5883 5885 5887 5887 5888 5889 5889 5891 5891 5892 5892 5892 5893 5892 5891 5890 5889 5888 5887 5887 5886 5885 5885 5886 5886 5886 5887 5887 5887 5888 5889 5890 5891 5891 5892 5892 5893 5893 5893 5895 5896 5897 5897 5898 5899 5899 5899 5900 5900
5880 5882 5884 5885 5885 5886 5887 5888 5889 5889 5889 5890 5890 5890 5890 5888 5886 5886 5885 5884 5884 5884 5884 5884 5884 5884 5884 5885 5885 5886 5887 5888 5888 5889 5889 5890 5890 5890 5891 5892 5893 5894 5895 5895 5896 5896 5897 5897 5898
5876 5879 5880 5881 5882 5883 5885 5885 5886 5886 5887 5888 5888 5887 5887 5886 5884 5884 5883 5882 5882 5882 5882 5882 5881 5882 5882 5883 5883 5884 5884 5885 5886 5886 5887 5887 5887 5888 5888 5890 5890 5891 5891 5892 5893 5894 5894 5895 5896
5873 5875 5876 5877 5878 5880 5881 5882 5884 5883 5884 5885 5885 5885 5884 5883 5882 5881 5881 5880 5879 5879 5879 5879 5879 5879 5880 5880 5881 5881 5882 5882 5883 5883 5883 5883 5884 5884 5885 5886 5887 5887 5888 5889 5890 5890 5891 5892 5893
5868 5870 5872 5873 5874 5876 5878 5879 5880 5881 5881 5882 5883 5882 5881 5881 5880 5879 5879 5878 5878 5877 5875 5876 5876 5876 5877 5877 5877 5878 5878 5879 5879 5880 5880 5880 5880 5881 5881 5882 5883 5884 5884 5885 5886 5887 5888 5889 5889
5863 5866 5868 5869 5871 5873 5875 5875 5877 5877 5877 5878 5879 5879 5879 5878 5877 5877 5876 5876 5876 5875 5874 5874 5874 5874 5874 5874 5874 5875 5875 5875 5876 5876 5876 5877 5877 5877 5878 5878 5879 5880 5881 5881 5882 5883 5884 5885 5885
5858 5862 5865 5867 5868 5870 5871 5872 5874 5874 5874 5875 5876 5876 5876 5875 5874 5874 5873 5874 5874 5874 5873 5872 5872 5871 5871 5870 5871 5872 5872 5872 5872 5873 5873 5873 5873 5874 5874 5875 5875 5876 5877 5878 5879 5880 5880 5881 5881
5854 5856 5860 5863 5864 5866 5867 5869 5870 5870 5871 5872 5873 5873 5873 5873 5872 5871 5871 5871 5872 5871 5870 5870 5870 5869 5868 5868 5868 5869 5869 5869 5869 5869 5870 5869 5869 5870 5871 5871 5872 5872 5873 5874 5875 5875 5876 5877 5877
5850 5852 5855 5857 5859 5861 5864 5865 5866 5867 5868 5869 5869 5870 5870 5870 5870 5869 5869 5868 5868 5868 5868 5868 5867 5866 5866 5865 5865 5866 5866 5866 5866 5866 5866 5866 5866 5866 5867 5867 5868 5868 5869 5870 5870 5871 5872 5872 5872
5845 5848 5850 5853 5855 5858 5859 5863 5863 5864 5865 5866 5866 5866 5867 5867 5867 5866 5866 5866 5866 5865 5865 5864 5864 5864 5863 5863 5863 5863 5863 5863 5863 5863 5863 5863 5863 5863 5863 5863 5863 5864 5864 5865 5866 5867 5867 5867 5867
5841 5844 5846 5849 5852 5854 5855 5860 5860 5861 5861 5863 5863 5863 5863 5863 5863 5862 5863 5863 5863 5863 5862 5861 5861 5861 5860 5860 5860 5860 5860 5859 5859 5859 5859 5859 5859 5859 5859 5859 5859 5860 5860 5861 5861 5862 5862 5862 5862
Wind_Speed
11 11 11 10 10 11 14 15 14 13 12 11 10 10 10 8 6 6 5 4 5 5 5 4 4 4 4 4 3 3 2 2 3 3 3 3 4 4 4 4 4 4 5 5 5 6 6 6 6
10 10 10 10 10 12 14 14 13 11 11 11 10 9 8 7 6 5 4 3 4 4 4 3 3 3 3 3 2 2 2 2 2 2 3 3 3 3 4 4 4 4 4 4 4 5 5 6 6
8 8 8 8 10 11 12 12 11 11 11 10 9 9 7 6 6 5 4 3 3 3 3 3 2 2 2 2 2 2 2 2 2 2 3 3 3 3 3 3 3 3 3 3 3 4 5 5 5
7 6 6 7 9 11 10 10 12 12 11 9 9 9 7 6 6 5 4 4 4 4 3 3 2 2 2 2 2 1 1 1 2 2 3 3 2 2 2 3 3 3 2 3 3 3 4 4 4
5 5 5 7 8 9 9 10 12 12 12 10 9 9 8 7 6 5 5 4 5 4 4 3 2 2 1 1 1 1 1 1 1 2 3 3 3 2 3 3 3 2 2 2 2 3 3 3 3
3 3 3 5 6 7 8 9 10 12 12 10 10 9 8 8 7 6 6 5 5 4 3 2 2 1 1 1 1 1 0 0 1 2 3 3 3 2 2 3 2 3 3 3 2 3 3 3 3
3 2 2 4 4 7 6 8 10 12 12 10 9 9 8 8 7 7 6 5 5 4 3 2 1 1 1 1 1 1 1 1 1 2 2 3 3 3 2 2 2 2 3 3 3 3 3 3 2
4 3 3 2 3 5 5 6 9 11 10 10 10 9 9 8 7 7 6 5 5 4 3 2 1 1 1 1 1 1 1 0 1 2 2 3 3 3 2 2 2 3 3 3 3 3 3 3 2
5 3 2 1 1 1 4 6 8 10 10 9 10 10 9 8 7 6 6 5 4 4 3 2 1 1 0 1 1 1 1 1 1 1 2 2 3 3 2 2 2 2 3 3 3 4 3 3 3
6 4 3 2 1 1 2 5 7 8 9 10 10 10 9 8 6 6 5 4 4 3 3 2 1 1 1 1 2 2 2 1 1 1 1 2 2 2 2 2 2 2 3 3 3 3 3 3 3
7 5 5 4 4 4 5 5 5 8 9 10 9 9 9 8 6 7 5 4 4 3 2 2 2 1 2 2 2 3 3 2 2 1 1 1 1 2 1 1 2 2 2 2 3 3 3 3 2
9 8 7 6 7 7 8 8 8 9 9 9 9 9 9 8 7 7 5 3 4 3 3 3 2 1 2 3 3 4 4 3 2 2 1 1 2 2 1 1 2 2 2 2 3 2 2 2 2
10 9 8 7 8 9 10 10 10 10 10 10 9 10 9 9 8 7 6 5 4 4 3 4 3 2 2 3 3 4 5 4 3 2 2 2 2 1 1 1 1 2 2 2 2 2 1 1 1
12 11 9 9 9 10 12 11 11 11 11 10 10 9 9 9 9 8 7 5 4 3 3 4 3 3 3 4 4 5 6 5 4 3 3 2 2 2 2 1 1 2 2 2 2 2 2 2 1
13 12 11 10 10 10 12 12 12 11 10 10 10 9 9 9 9 9 9 8 6 5 4 4 4 4 4 5 5 6 6 6 6 5 4 3 3 3 3 2 2 2 2 2 2 2 3 2 2
14 12 11 11 10 9 11 12 11 11 12 11 11 9 9 9 9 10 10 9 8 7 6 5 4 4 5 6 7 7 7 8 8 7 6 5 5 5 5 4 3 3 3 2 2 2 3 2 1
15 14 13 12 10 10 11 11 12 12 11 11 12 10 9 10 10 10 10 10 9 8 7 6 6 6 6 6 7 8 9 9 9 8 8 8 7 7 7 6 5 4 3 3 3 3 3 2 2
16 15 14 13 12 12 12 12 12 12 12 12 12 10 11 11 11 10 10 10 10 9 8 7 6 6 6 6 6 8 9 10 9 9 9 9 9 9 8 7 6 6 5 4 4 4 4 3 3
18 17 16 14 12 13 13 13 13 14 14 13 13 12 12 13 12 11 11 11 10 9 9 8 7 7 7 6 6 8 9 9 9 9 9 9 9 9 10 10 9 8 7 7 6 6 5 5 4
20 18 16 15 13 14 15 15 15 14 14 12 12 12 13 14 13 12 10 10 10 9 8 8 8 7 7 6 6 8 9 10 9 9 10 11 10 11 11 10 11 10 10 9 9 8 7 7 6
21 18 16 15 14 15 16 16 15 14 13 11 12 13 13 13 12 10 10 10 9 7 6 7 7 7 6 6 6 8 9 9 10 10 11 11 12 11 11 12 12 12 11 11 10 10 9 8 8
21 18 18 17 17 17 17 16 14 14 12 12 13 13 13 12 11 10 10 8 8 7 7 7 7 8 7 7 7 8 9 9 9 10 11 12 12 12 12 13 13 14 13 13 12 12 12 10 10
21 20 19 19 19 19 18 16 14 15 13 13 13 13 13 13 10 9 9 8 8 8 7 8 9 8 8 8 8 8 10 10 11 11 11 11 11 12 13 14 14 14 14 14 14 14 13 12 12
22 22 21 21 21 19 17 18 15 14 13 12 12 12 12 12 10 9 9 9 8 8 8 8 9 8 8 8 8 8 9 10 10 11 12 13 12 12 13 14 14 14 15 15 14 14 14 14 14
24 23 23 22 21 17 16 18 15 14 13 12 11 12 13 13 11 10 9 8 8 8 7 7 8 8 9 9 8 8 9 10 11 12 13 13 14 13 14 15 14 14 15 15 14 14 14 15 15
24 24 22 20 18 16 17 17 15 14 15 14 13 12 12 12 11 10 8 8 8 8 8 7 8 9 9 9 9 9 9 10 10 12 13 13 14 13 13 15 15 15 15 15 15 15 16 16 16
24 23 22 22 20 19 19 17 16 16 15 15 13 12 11 12 10 8 6 7 8 8 8 8 8 8 9 9 10 10 10 10 10 11 11 12 13 14 13 14 15 15 16 16 17 17 18 18 18
23 23 24 24 22 21 18 16 16 16 16 15 14 13 11 11 8 7 8 8 7 8 8 8 8 8 9 10 11 11 10 10 10 10 11 11 12 13 14 14 15 15 16 17 18 18 19 19 19
23 24 25 25 24 22 20 18 16 16 16 15 13 10 10 9 9 8 8 8 7 8 8 8 8 9 10 10 10 11 11 11 11 11 12 13 13 14 14 14 14 15 16 17 18 19 20 20 20
22 22 24 26 25 24 22 20 16 17 16 15 12 11 11 9 9 8 7 7 8 9 9 10 10 10 9 9 10 11 11 11 12 11 12 13 13 14 14 14 15 15 15 16 18 19 20 21 21
Wind_Direction
102 97 91 83 73 64 56 49 44 45 43 39 36 38 43 48 53 61 66 75 81 90 98 97 95 97 95 93 86 72 54 43 42 42 41 47 54 62 71 75 78 83 84 84 84 85 88 90 87
104 101 95 81 74 61 54 44 37 40 44 47 44 43 46 48 46 51 61 70 79 88 102 105 105 104 100 98 88 63 45 38 38 33 31 35 38 56 64 64 67 73 79 84 84 86 89 87 83
105 103 97 81 70 61 55 42 29 27 32 40 47 47 47 48 37 41 58 70 71 78 95 104 101 105 107 106 88 52 38 34 31 24 20 21 29 46 58 54 61 68 74 78 81 86 88 84 80
109 105 104 93 72 64 55 34 22 20 20 27 40 45 46 45 36 34 43 59 66 63 68 84 83 87 96 109 98 66 52 38 23 16 10 9 12 21 44 48 55 58 61 66 72 81 84 79 79
128 122 112 93 79 70 51 25 12 9 7 16 32 35 38 38 33 32 40 49 54 55 58 67 70 84 107 131 132 94 73 42 16 9 7 5 5 17 37 40 42 43 43 46 55 64 72 81 79
152 139 100 94 80 67 43 18 8 2 0 9 21 26 33 32 30 31 37 41 40 39 50 65 76 82 133 176 162 142 130 348 350 2 10 9 1 23 26 22 29 32 35 33 40 48 61 71 78
180 185 133 106 76 75 51 9 352 350 355 6 16 24 30 36 32 26 29 31 28 21 31 55 81 89 108 150 179 168 199 262 339 358 6 10 15 15 16 18 13 22 29 32 44 51 55 65 77
194 196 172 141 82 70 39 2 346 344 349 1 11 21 27 34 35 23 24 26 24 21 24 33 46 73 94 168 154 167 211 262 325 343 358 6 5 4 7 11 11 19 25 31 41 40 47 63 75
195 193 200 214 118 71 21 355 341 338 340 357 9 7 11 26 31 21 17 18 19 16 13 19 33 41 19 191 181 205 225 238 292 332 349 3 6 2 4 3 5 18 24 30 34 33 45 66 73
199 192 216 233 322 328 347 342 334 327 331 348 357 354 356 11 22 19 8 9 12 9 358 354 348 288 266 216 200 209 214 220 243 302 329 342 357 4 6 1 7 10 10 19 27 33 50 70 71
213 213 233 245 285 303 302 301 311 311 318 333 341 347 352 359 10 7 1 354 358 359 354 348 334 287 254 224 221 219 219 220 232 250 294 313 327 2 16 351 355 355 353 6 15 23 54 68 63
227 228 239 248 274 281 283 286 287 292 304 318 333 341 343 345 352 358 360 352 349 340 341 335 312 254 235 227 226 223 220 217 226 239 259 288 312 331 357 345 355 353 350 355 360 11 32 47 43
232 237 244 250 265 270 273 275 274 286 298 308 319 328 335 338 340 344 346 343 348 328 317 314 311 300 246 236 225 220 218 216 220 220 231 279 292 288 274 293 327 336 336 342 351 358 7 19 13
234 240 243 244 255 264 270 272 277 286 291 300 309 315 323 332 333 333 334 332 339 332 313 308 305 284 266 242 226 218 218 219 219 222 226 252 255 245 258 261 302 331 313 312 323 337 340 338 343
234 241 243 245 249 257 267 269 274 284 286 293 302 306 315 323 327 328 327 324 324 322 306 299 292 275 264 253 238 230 223 225 228 229 229 240 240 233 237 247 281 316 319 302 311 317 318 320 321
234 237 236 238 241 253 265 272 273 280 285 289 296 298 306 310 315 318 318 319 316 314 307 302 283 276 270 258 239 233 230 227 225 230 234 239 241 235 231 235 257 281 297 288 284 297 298 295 292
230 233 233 236 240 249 261 271 278 280 284 290 299 297 304 304 305 307 310 312 307 298 290 291 291 288 284 270 245 235 231 228 229 235 239 242 240 233 228 232 244 254 268 267 262 267 273 276 271
229 232 232 234 238 246 256 269 281 282 285 292 299 300 302 304 305 303 304 306 306 293 279 273 277 289 292 278 256 243 234 229 232 237 239 241 238 232 233 236 241 242 250 252 247 255 259 263 258
228 228 230 233 239 246 257 269 279 282 281 286 296 300 302 305 305 301 299 295 294 287 271 269 275 282 282 272 259 246 235 233 236 237 242 246 242 237 237 239 243 240 241 245 244 249 250 250 249
228 229 229 229 233 245 254 262 269 272 272 283 288 296 301 304 303 299 295 295 294 290 265 268 274 281 276 271 256 246 236 234 236 239 244 246 245 240 237 238 244 241 239 239 241 248 252 249 250
228 232 229 230 235 243 251 258 264 269 275 284 292 296 301 302 305 301 295 296 289 286 281 269 265 269 275 273 259 246 240 240 242 241 247 249 247 246 246 241 242 241 238 239 243 247 250 248 248
227 229 229 229 235 241 248 256 259 266 275 281 288 294 297 298 301 304 298 290 281 278 277 268 264 263 266 269 262 247 241 243 249 247 248 250 249 245 246 246 247 244 240 241 245 248 249 249 250
225 226 228 232 237 240 247 255 258 266 275 282 286 289 291 296 298 299 295 288 279 272 269 269 264 259 260 263 260 253 248 249 254 253 245 247 251 251 248 247 251 249 244 242 245 246 247 250 253
223 225 226 232 237 241 247 254 257 266 274 279 285 288 294 300 300 296 293 288 288 286 275 268 270 262 261 263 261 256 251 253 256 257 250 251 256 256 251 251 251 248 246 247 245 246 250 252 254
221 224 227 230 233 234 239 250 257 261 267 274 282 288 298 302 297 295 284 280 285 285 284 272 273 265 263 262 262 260 255 259 259 259 257 256 256 257 252 252 251 248 247 247 246 247 250 255 255
222 225 227 230 231 229 235 246 251 254 257 265 274 282 291 296 291 294 284 272 275 279 280 274 271 273 273 270 265 262 263 262 262 262 262 260 258 257 254 250 248 248 247 246 246 249 252 256 258
220 223 224 227 227 229 233 244 248 254 254 260 264 278 287 291 288 288 284 278 279 282 285 284 282 277 271 268 266 266 267 267 268 267 262 260 259 257 255 252 248 249 250 248 250 252 253 255 258
219 220 221 223 224 227 233 243 251 255 260 261 266 272 282 286 286 288 295 292 284 292 290 284 282 284 279 268 267 266 265 270 271 268 266 265 260 256 255 255 249 250 251 251 253 252 254 256 256
217 219 221 223 225 229 236 244 250 258 259 265 270 265 276 276 281 285 290 294 294 293 288 285 284 285 282 275 270 268 272 273 274 273 268 266 263 258 260 259 256 254 250 252 255 255 255 257 258
217 221 223 224 225 231 240 249 257 263 262 267 269 264 270 278 282 282 285 293 295 293 290 288 287 288 283 280 275 269 270 272 274 276 274 267 263 261 261 259 257 254 255 257 257 257 257 258 260